Obergurgl, Austria 16 day weather forecast

Slopes altitude range 1795 m - 3080m

Number of lifts: 24 Pistes: 110km

In some cases the lift and piste totals shown are for the ski domain (e.g. Three Valleys) rather than individual resort (e.g. Courchevel)

Overview

The 16 day weather forecast is fully updated 4 times every day.

    • Wed 19 DEC 2018
    • Wed 19
    • -8C -5C
    • Thu 20 DEC 2018
    • Thu 20
    • -8C -6C
    • Fri 21 DEC 2018
    • Fri 21
    • -9C -5C
    • Sat 22 DEC 2018
    • Sat 22
    • -4C 0C
    • Sun 23 DEC 2018
    • Sun 23
    • -8C -3C
    • Mon 24 DEC 2018
    • Mon 24
    • -3C -1C
    • Tue 25 DEC 2018
    • Tue 25
    • -6C 0C
    • Wed 26 DEC 2018
    • Wed 26
    • -5C -3C
    • Thu 27 DEC 2018
    • Thu 27
    • -6C -4C
    • Fri 28 DEC 2018
    • Fri 28
    • -8C -3C
    • Sat 29 DEC 2018
    • Sat 29
    • -4C 0C
    • Sun 30 DEC 2018
    • Sun 30
    • -7C -1C
    • Mon 31 DEC 2018
    • Mon 31
    • -5C -1C
    • Tue 01 JAN 2019
    • Tue 01
    • -12C -3C
    • Wed 02 JAN 2019
    • Wed 02
    • -9C 0C
    • Thu 03 JAN 2019
    • Thu 03
    • -8C 0C

Date:

Time Type 0°C level Temp Chill Snow Cloud Speed Gust Dir Press
3:00 1092m -9°C -9_11 0cm 100% 11mph 12mph 1024mB
6:00 1299m -9°C -9_9 0cm 100% 9mph 10mph 1023mB
9:00 1531m -8°C -8_8 0cm 100% 8mph 9mph 1023mB
12:00 1702m -5°C -5_8 0cm 100% 8mph 10mph 1021mB
15:00 1193m -5°C -5_9 0cm 91% 9mph 10mph 1020mB
18:00 922m -5°C -5_11 0cm 92% 11mph 12mph 1020mB
21:00 1125m -11°C -11_7 1cm 80% 7mph 8mph 1021mB
0:00 1249m -11°C -11_5 1cm 90% 5mph 5mph 1021mB
3:00 1292m -8°C -8_2 3cm 100% 2mph 3mph 1021mB
6:00 1278m -8°C -8_3 3cm 100% 3mph 4mph 1022mB
9:00 1382m -8°C -8_4 2cm 100% 4mph 5mph 1022mB
12:00 1490m -6°C -6_5 2cm 100% 5mph 5mph 1021mB
15:00 1446m -6°C -6_5 2cm 100% 5mph 5mph 1023mB
18:00 1021m -6°C -6_2 1cm 94% 2mph 3mph 1025mB
21:00 632m -12°C -12_6 1cm 89% 6mph 7mph 1027mB
0:00 581m -13°C -13_8 0cm 75% 8mph 10mph 1027mB
3:00 780m -12°C -12_9 0cm 100% 9mph 10mph 1026mB
6:00 937m -12°C -12_11 0cm 100% 11mph 13mph 1024mB
9:00 1512m -9°C -9_13 1cm 100% 13mph 17mph 1023mB
12:00 1688m -5°C -5_14 1cm 100% 14mph 17mph 1021mB
15:00 1920m -4°C -4_9 1cm 100% 9mph 11mph 1021mB
18:00 2104m -2°C -2_7 1cm 100% 7mph 8mph 1022mB
21:00 1833m -4°C -4_7 1cm 100% 7mph 8mph 1021mB
0:00 2162m -4°C -4_7 1cm 100% 7mph 8mph 1021mB
3:00 2074m -3°C -3_8 1cm 100% 8mph 10mph 1019mB
6:00 2214m -3°C -3_7 1cm 100% 7mph 8mph 1019mB
9:00 2189m -4°C -4_7 0cm 81% 7mph 8mph 1019mB
12:00 2426m 0°C 0_8 0cm 60% 8mph 9mph 1018mB
15:00 1874m 0°C 0_7 0cm 34% 7mph 8mph 1019mB
18:00 1414m 0°C 0_8 0cm 18% 8mph 8mph 1022mB
21:00 1340m -7°C -7_7 0cm 4% 7mph 8mph 1024mB
0:00 1238m -8°C -8_7 0cm 32% 7mph 8mph 1025mB
3:00 1171m -9°C -9_7 0cm 97% 7mph 8mph 1025mB
6:00 1173m -9°C -9_7 0cm 92% 7mph 7mph 1026mB
9:00 1799m -8°C -8_7 1cm 100% 7mph 8mph 1026mB
12:00 2070m -3°C -3_7 1cm 100% 7mph 8mph 1025mB
15:00 1989m -3°C -3_7 1cm 100% 7mph 8mph 1026mB
18:00 1518m -3°C -3_6 1cm 99% 6mph 7mph 1027mB
21:00 1721m -7°C -7_5 1cm 99% 5mph 6mph 1028mB
0:00 1931m -7°C -7_6 1cm 99% 6mph 7mph 1027mB
3:00 2046m -4°C -4_6 2cm 100% 6mph 7mph 1026mB
6:00 2117m -4°C -4_7 4cm 100% 7mph 8mph 1026mB
9:00 2206m -3°C -3_7 5cm 100% 7mph 9mph 1027mB
12:00 2252m -1°C -1_8 4cm 100% 8mph 11mph 1027mB
15:00 2310m -1°C -1_7 1cm 100% 7mph 9mph 1027mB
18:00 2242m -1°C -1_6 1cm 100% 6mph 7mph 1028mB
21:00 1938m -4°C -4_6 1cm 99% 6mph 6mph 1029mB
0:00 1985m -4°C -4_5 1cm 100% 5mph 6mph 1028mB
3:00 1826m -4°C -4_5 1cm 100% 5mph 6mph 1027mB
6:00 1637m -5°C -5_5 1cm 100% 5mph 6mph 1026mB
9:00 2120m -6°C -6_5 0cm 94% 5mph 6mph 1025mB
12:00 2470m 0°C 0_4 0cm 91% 4mph 5mph 1023mB
15:00 2014m 0°C 0_3 0cm 100% 3mph 4mph 1023mB
18:00 1820m 0°C 0_4 0cm 100% 4mph 5mph 1023mB
21:00 1833m -4°C -4_6 0cm 99% 6mph 7mph 1023mB
0:00 1851m -4°C -4_6 0cm 99% 6mph 7mph 1022mB
3:00 1887m -4°C -4_5 0cm 99% 5mph 5mph 1022mB
6:00 1820m -4°C -4_3 0cm 99% 3mph 3mph 1022mB
9:00 1858m -5°C -5_4 1cm 100% 4mph 5mph 1023mB
12:00 1956m -3°C -3_6 1cm 100% 6mph 7mph 1022mB
15:00 1895m -3°C -3_6 2cm 100% 6mph 8mph 1022mB
18:00 1768m -3°C -3_5 2cm 100% 5mph 7mph 1023mB
21:00 1676m -5°C -5_4 2cm 100% 4mph 5mph 1025mB
0:00 1642m -6°C -6_4 2cm 100% 4mph 5mph 1025mB
3:00 1616m -6°C -6_5 1cm 100% 5mph 5mph 1025mB
6:00 1591m -6°C -6_5 1cm 100% 5mph 7mph 1025mB
9:00 1710m -6°C -6_6 1cm 100% 6mph 7mph 1026mB
12:00 1882m -4°C -4_6 1cm 100% 6mph 7mph 1025mB
15:00 1770m -4°C -4_6 1cm 99% 6mph 7mph 1025mB
18:00 1513m -4°C -4_5 1cm 99% 5mph 6mph 1026mB
21:00 1178m -9°C -9_4 1cm 98% 4mph 5mph 1027mB
0:00 1190m -9°C -9_4 1cm 98% 4mph 5mph 1027mB
3:00 1080m -9°C -9_5 1cm 92% 5mph 6mph 1027mB
6:00 1181m -9°C -9_6 1cm 96% 6mph 7mph 1028mB
9:00 1634m -8°C -8_7 1cm 90% 7mph 8mph 1028mB
12:00 1976m -3°C -3_9 1cm 95% 9mph 10mph 1027mB
15:00 1775m -3°C -3_8 1cm 96% 8mph 10mph 1028mB
18:00 1341m -3°C -3_6 1cm 87% 6mph 6mph 1030mB
Morning 0.0520833mm 0 1512m -7°C -7_8 1cm 87% 8mph 8mph 1029mB
Afternoon 0.598958mm 0 1958m 0°C 0_10 5cm 100% 10mph 15mph 1028mB
Morning 0.317708mm 0.25 1879m -2°C -2_12 3cm 100% 12mph 18mph 1030mB
Afternoon 0.03125mm 0 1018m -1°C -1_4 1cm 99% 4mph 5mph 1033mB
Morning 0.0104167mm 0 1550m -7°C -7_6 0cm 100% 6mph 7mph 1034mB
Afternoon 0.0260417mm 0 1412m -1°C -1_5 1cm 94% 5mph 6mph 1037mB
Morning 0.0364583mm 0 1673m -5°C -5_9 1cm 98% 9mph 12mph 1036mB
Afternoon 0.0260417mm 0 362m -3°C -3_1 1cm 79% 1mph 1mph 1038mB
Morning 0mm 0 800m -12°C -12_10 0cm 0% 10mph 11mph 1037mB
Afternoon 0mm 0 1097m 0°C 0_6 0cm 0% 6mph 6mph 1036mB
Morning 0mm 0 884m -8°C -8_4 0cm 0% 4mph 5mph 1037mB
Afternoon 0mm 0 1006m 0°C 0_4 0cm 42% 4mph 4mph 1037mB

16 day outlook at a glance

Forecast issued: 19/12/2018 03:06:28

Chat

Your comments and questions. In a resort? Let us know what it's like!


Characters left 250

For terms and conditions see Readers Comments on the Cookie and privacy policy page.